Weather in Zarow

Poland     50°56′29″N   16°29′42″E
temp.,
°C
wind,
m/s
gust,
m/s
humid.,
%
clouds,
%
prec.,
mm/h
press.,
hPa
HPBL,
m
20 may, fri
fri2023:00+17ssw61446100 0.0 1020334
02:00+18sw61344100 0.0 1018245
05:00+16wsw385599 0.0 1019143
08:00+20w597421 0.1 1021586
11:00+23wnw5766100 0.0 10201172
14:00+24wnw466294 0.2 10191177
17:00+24wnw3467100 0.9 10171006
20:00+21sse3383100 1.3 101440
21 may, sat
sat2123:00+18s498953 1.5 1011160
02:00+17w71589100 3.8 1012580
05:00+13w10188658 0.4 10151052
08:00+14wnw11167521 0.5 10171401
11:00+16wnw11145975 0.0 10181659
14:00+18w9135427 0.1 10172023
17:00+18wnw814624 0.2 10161986
20:00+15wnw6116622 0.2 1017458
22 may, sun
sun2223:00+13w61269100 0.0 1017625
02:00+13wnw6117388 0.0 1017644
05:00+11w5118646 0.1 1017447
08:00+12wnw710705 0.1 1017927
11:00+16wnw79543 0.0 10161423
14:00+18wnw69455 0.0 10152104
17:00+19nw574675 0.0 10142308
20:00+14ne2266100 0.0 101438
23 may, mon
mon2323:00+10sse11825 0.0 101510
02:00+8sw11865 0.0 101510
05:00+7se11885 0.0 101510
08:00+12e23745 0.0 1014304
11:00+17ese446097 0.0 1012983
14:00+19ese5555100 0.0 10101271
17:00+19ese565561 0.0 10081201
20:00+16se497596 0.0 1008222
24 may, tue
tue2423:00+13se357885 0.0 100764
02:00+14se3577100 0.1 1006125
05:00+12s338949 0.0 100640
08:00+17w237799 0.0 1007287
11:00+21wnw566176 0.0 10081390
14:00+21wsw126678 0.3 1008771
17:00+17w2490100 5.0 1010112
20:00+17sw3486100 7.4 101162